| time (UTC) | temp F | wind direction | speed MPH | gust MPH | rain 1hr in | rain 24hr in | rain mn in | humidity % | barometer mb |
| 20260507194451 | 63 | 40 | 3.0 | 8.0 | 0.00 | 0.00 | 0.00 | 42 | 1008.2 |
| 20260507192952 | 62 | 56 | 4.0 | 13.0 | 0.00 | 0.00 | 0.00 | 46 | 1008.4 |
| 20260507191451 | 61 | 87 | 7.0 | 14.0 | 0.00 | 0.00 | 0.00 | 47 | 1008.6 |
| 20260507185954 | 62 | 117 | 3.0 | 7.0 | 0.00 | 0.00 | 0.00 | 50 | 1008.6 |
| 20260507184452 | 62 | 25 | 3.0 | 8.0 | 0.00 | 0.00 | 0.00 | 46 | 1009.0 |
| 20260507182952 | 62 | 313 | 3.0 | 8.0 | 0.00 | 0.00 | 0.00 | 49 | 1009.2 |
| 20260507175955 | 60 | 70 | 6.0 | 14.0 | 0.00 | 0.00 | 0.00 | 49 | 1009.1 |
| 20260507174451 | 60 | 328 | 5.0 | 12.0 | 0.00 | 0.00 | 0.00 | 53 | 1009.3 |
| 20260507172952 | 59 | 24 | 6.0 | 16.0 | 0.00 | 0.00 | 0.00 | 53 | 1009.5 |
| 20260507171451 | 59 | 104 | 7.0 | 15.0 | 0.00 | 0.00 | 0.00 | 51 | 1009.9 |
| 20260507165954 | 59 | 41 | 4.0 | 9.0 | 0.00 | 0.00 | 0.00 | 53 | 1010.1 |
| 20260507164451 | 59 | 72 | 5.0 | 13.0 | 0.00 | 0.00 | 0.00 | 53 | 1010.3 |
| 20260507162952 | 58 | 92 | 7.0 | 12.0 | 0.00 | 0.00 | 0.00 | 53 | 1010.4 |
| 20260507161451 | 58 | 67 | 8.0 | 15.0 | 0.00 | 0.00 | 0.00 | 53 | 1010.6 |
| 20260507155955 | 57 | 112 | 7.0 | 14.0 | 0.00 | 0.00 | 0.00 | 58 | 1010.8 |
| 20260507152951 | 55 | 96 | 7.0 | 13.0 | 0.00 | 0.00 | 0.00 | 61 | 1011.3 |
| 20260507151451 | 55 | 81 | 5.0 | 12.0 | 0.00 | 0.00 | 0.00 | 63 | 1011.4 |
| 20260507145955 | 54 | 77 | 4.0 | 9.0 | 0.00 | 0.00 | 0.00 | 67 | 1011.6 |
| 20260507144452 | 54 | 75 | 5.0 | 11.0 | 0.00 | 0.00 | 0.00 | 65 | 1011.8 |
| 20260507142952 | 53 | 59 | 5.0 | 10.0 | 0.00 | 0.00 | 0.00 | 70 | 1012.2 |
| 20260507141451 | 53 | 77 | 5.0 | 11.0 | 0.00 | 0.00 | 0.00 | 71 | 1012.1 |
| 20260507135955 | 53 | 25 | 2.0 | 7.0 | 0.00 | 0.00 | 0.00 | 73 | 1012.3 |
| 20260507134451 | 52 | 117 | 5.0 | 10.0 | 0.00 | 0.00 | 0.00 | 76 | 1012.2 |
| 20260507132951 | 51 | 77 | 6.0 | 11.0 | 0.00 | 0.00 | 0.00 | 77 | 1012.2 |
| 20260507131451 | 51 | 72 | 6.0 | 10.0 | 0.00 | 0.00 | 0.00 | 78 | 1012.3 |
| 20260507124451 | 50 | 60 | 4.0 | 7.0 | 0.00 | 0.00 | 0.00 | 84 | 1012.2 |
| 20260507122951 | 50 | 84 | 2.0 | 5.0 | 0.00 | 0.00 | 0.00 | 89 | 1012.2 |
| 20260507121451 | 50 | 62 | 2.0 | 7.0 | 0.00 | 0.00 | 0.00 | 89 | 1012.1 |
| 20260507115954 | 50 | 82 | 2.0 | 6.0 | 0.00 | 0.00 | 0.00 | 91 | 1012.0 |
| 20260507114451 | 50 | 67 | 3.0 | 5.0 | 0.00 | 0.00 | 0.00 | 93 | 1011.8 |
| 20260507112951 | 50 | 65 | 1.0 | 4.0 | 0.00 | 0.00 | 0.00 | 94 | 1011.7 |
| 20260507111451 | 50 | 64 | 0.0 | 3.0 | 0.00 | 0.00 | 0.00 | 94 | 1011.5 |
| 20260507105954 | 50 | 309 | 0.0 | 0.0 | 0.00 | 0.00 | 0.00 | 94 | 1011.6 |
| 20260507104452 | 50 | 25 | 0.0 | 0.0 | 0.00 | 0.00 | 0.00 | 94 | 1011.3 |
| 20260507102951 | 49 | 25 | 0.0 | 1.0 | 0.00 | 0.00 | 0.00 | 94 | 1011.1 |
| 20260507095955 | 49 | 61 | 0.0 | 2.0 | 0.00 | 0.00 | 0.00 | 94 | 1010.9 |
| 20260507092953 | 49 | 61 | 1.0 | 4.0 | 0.00 | 0.00 | 0.00 | 94 | 1010.7 |
| 20260507085954 | 50 | 63 | 0.0 | 2.0 | 0.00 | 0.00 | 0.00 | 94 | 1010.4 |
| 20260507084452 | 50 | 66 | 2.0 | 3.0 | 0.00 | 0.00 | 0.00 | 94 | 1010.0 |
| 20260507082952 | 50 | 86 | 0.0 | 2.0 | 0.00 | 0.00 | 0.00 | 93 | 1010.1 |
| 20260507081451 | 50 | 72 | 3.0 | 5.0 | 0.00 | 0.00 | 0.00 | 93 | 1009.8 |
| 20260507075954 | 50 | 90 | 2.0 | 4.0 | 0.00 | 0.00 | 0.00 | 93 | 1010.0 |
| 20260507072952 | 49 | 75 | 2.0 | 6.0 | 0.00 | 0.00 | 0.00 | 92 | 1010.4 |
| 20260507071453 | 50 | 91 | 4.0 | 9.0 | 0.00 | 0.00 | 0.00 | 92 | 1010.3 |
| 20260507064451 | 50 | 49 | 3.0 | 6.0 | 0.00 | 0.00 | 0.00 | 92 | 1011.0 |
| 20260507061451 | 51 | 42 | 3.0 | 13.0 | 0.00 | 0.00 | 0.00 | 92 | 1010.4 |
| 20260507055954 | 52 | 68 | 2.0 | 8.0 | 0.00 | 0.00 | 0.00 | 91 | 1010.5 |
| 20260507054451 | 53 | 55 | 4.0 | 9.0 | 0.00 | 0.00 | 0.00 | 91 | 1010.3 |
| 20260507052951 | 53 | 64 | 6.0 | 12.0 | 0.00 | 0.00 | 0.00 | 91 | 1010.4 |
| 20260507051452 | 54 | 75 | 4.0 | 11.0 | 0.00 | 0.00 | 0.00 | 91 | 1010.2 |
| 20260507045954 | 55 | 37 | 3.0 | 10.0 | 0.00 | 0.00 | 0.00 | 91 | 1010.4 |
| 20260507044453 | 55 | 75 | 3.0 | 11.0 | 0.00 | 0.00 | 0.00 | 90 | 1009.8 |
| 20260507042952 | 56 | 49 | 2.0 | 5.0 | 0.00 | 0.00 | 0.00 | 90 | 1009.5 |
| 20260507041454 | 56 | 71 | 4.0 | 9.0 | 0.00 | 0.00 | 0.00 | 90 | 1009.7 |
| 20260507035956 | 57 | 37 | 6.0 | 13.0 | 0.00 | 0.00 | 0.00 | 91 | 1009.4 |
| 20260507034452 | 57 | 66 | 3.0 | 9.0 | 0.00 | 0.00 | 0.00 | 90 | 1009.6 |
| 20260507032953 | 58 | 41 | 1.0 | 7.0 | 0.00 | 0.00 | 0.00 | 90 | 1009.7 |
| 20260507031451 | 58 | 69 | 2.0 | 8.0 | 0.00 | 0.00 | 0.00 | 90 | 1009.3 |
| 20260507025955 | 58 | 21 | 0.0 | 6.0 | 0.00 | 0.00 | 0.00 | 90 | 1009.7 |
| 20260507024451 | 59 | 62 | 1.0 | 4.0 | 0.00 | 0.00 | 0.00 | 90 | 1009.1 |
| 20260507021451 | 62 | 53 | 3.0 | 10.0 | 0.00 | 0.00 | 0.00 | 91 | 1009.4 |
| 20260507015954 | 63 | 20 | 0.0 | 0.0 | 0.00 | 0.00 | 0.00 | 90 | 1009.1 |
| 20260507011451 | 64 | 1 | 2.0 | 7.0 | 0.00 | 0.00 | 0.00 | 88 | 1008.9 |
| 20260507005954 | 64 | 320 | 1.0 | 3.0 | 0.00 | 0.00 | 0.00 | 88 | 1008.8 |
| 20260507004451 | 64 | 268 | 2.0 | 5.0 | 0.00 | 0.00 | 0.00 | 88 | 1008.7 |
| 20260507001451 | 64 | 300 | 1.0 | 6.0 | 0.00 | 0.00 | 0.00 | 87 | 1008.3 |
| 20260506235955 | 64 | 323 | 1.0 | 4.0 | 0.00 | 0.00 | 0.00 | 87 | 1008.3 |
| 20260506234451 | 65 | 266 | 2.0 | 5.0 | 0.00 | 0.00 | 0.00 | 86 | 1007.8 |
| 20260506232951 | 65 | 287 | 2.0 | 8.0 | 0.00 | 0.00 | 0.00 | 86 | 1008.0 |
| 20260506225953 | 65 | 338 | 3.0 | 8.0 | 0.00 | 0.00 | 0.00 | 85 | 1008.0 |
| 20260506224452 | 65 | 274 | 5.0 | 10.0 | 0.00 | 0.00 | 0.00 | 85 | 1008.0 |
| 20260506222951 | 66 | 259 | 5.0 | 12.0 | 0.00 | 0.00 | 0.00 | 84 | 1008.0 |
| 20260506221451 | 66 | 328 | 5.0 | 11.0 | 0.00 | 0.00 | 0.00 | 83 | 1008.0 |
| 20260506214452 | 66 | 326 | 5.0 | 10.0 | 0.00 | 0.00 | 0.00 | 84 | 1007.7 |
| 20260506212951 | 66 | 304 | 4.0 | 11.0 | 0.00 | 0.00 | 0.00 | 84 | 1007.7 |
| 20260506211451 | 66 | 274 | 3.0 | 8.0 | 0.00 | 0.00 | 0.00 | 85 | 1007.5 |
| 20260506205955 | 66 | 269 | 4.0 | 9.0 | 0.00 | 0.00 | 0.00 | 85 | 1007.4 |
| 20260506204451 | 65 | 300 | 5.0 | 9.0 | 0.00 | 0.00 | 0.00 | 85 | 1007.4 |
| 20260506201451 | 65 | 309 | 7.0 | 12.0 | 0.00 | 0.00 | 0.00 | 86 | 1007.3 |
| 20260506195953 | 65 | 319 | 6.0 | 13.0 | 0.00 | 0.00 | 0.00 | 86 | 1007.3 |